• In Hungary
  • List of Countries
  • For 7 days
  • Water Temperature
  • Satellite Maps
  • Weather Map
  • News
  • Weather Widgets
  • user-avatar
    Login

    Hourly Weather Sama

    Today, 24 September, Monday

    Time Temperature Precipitation Wind Pressure Humidity
    00:00 +19°C° 0 mm 4 mps 742 mmHg 96%
    01:00 +19°C° 0.1 mm 4 mps 742 mmHg 96%
    02:00 +19°C° 0.1 mm 4 mps 742 mmHg 95%
    03:00 +18°C° 0.1 mm 3 mps 742 mmHg 95%
    04:00 +18°C° 0 mm 3 mps 742 mmHg 95%
    05:00 +18°C° 0 mm 3 mps 742 mmHg 95%
    06:00 +17°C° 0 mm 3 mps 742 mmHg 94%
    07:00 +18°C° 0 mm 3 mps 742 mmHg 92%
    08:00 +18°C° 0 mm 3 mps 742 mmHg 89%
    09:00 +18°C° 0 mm 3 mps 743 mmHg 86%
    10:00 +19°C° 0 mm 3 mps 743 mmHg 82%
    11:00 +20°C° 0 mm 4 mps 743 mmHg 77%
    12:00 +20°C° 0 mm 4 mps 743 mmHg 73%
    13:00 +21°C° 0 mm 4 mps 742 mmHg 71%
    14:00 +21°C° 0 mm 4 mps 742 mmHg 68%
    15:00 +21°C° 0 mm 4 mps 742 mmHg 66%
    16:00 +20°C° 0 mm 4 mps 742 mmHg 71%
    17:00 +19°C° 0 mm 4 mps 742 mmHg 76%
    18:00 +18°C° 0 mm 4 mps 741 mmHg 81%
    19:00 +17°C° 0 mm 4 mps 742 mmHg 83%
    20:00 +16°C° 0 mm 3 mps 742 mmHg 85%
    21:00 +14°C° 0 mm 3 mps 742 mmHg 87%
    22:00 +13°C° 0 mm 3 mps 742 mmHg 86%
    23:00 +13°C° 0 mm 3 mps 742 mmHg 85%

    Tomorrow, 25 September, Tuesday

    Time Temperature Precipitation Wind Pressure Humidity
    00:00 +13°C° 0 mm 2 mps 742 mmHg 84%
    01:00 +13°C° 0 mm 2 mps 742 mmHg 81%
    02:00 +13°C° 0 mm 2 mps 741 mmHg 79%
    03:00 +13°C° 0 mm 2 mps 741 mmHg 77%
    04:00 +13°C° 0 mm 2 mps 741 mmHg 75%
    05:00 +13°C° 0 mm 2 mps 741 mmHg 74%
    06:00 +13°C° 0 mm 2 mps 741 mmHg 73%
    07:00 +15°C° 0 mm 2 mps 741 mmHg 65%
    08:00 +17°C° 0 mm 3 mps 741 mmHg 58%
    09:00 +19°C° 0 mm 3 mps 741 mmHg 50%
    10:00 +20°C° 0 mm 3 mps 741 mmHg 47%
    11:00 +22°C° 0 mm 3 mps 741 mmHg 44%
    12:00 +23°C° 0 mm 4 mps 741 mmHg 41%
    13:00 +23°C° 0 mm 4 mps 740 mmHg 43%
    14:00 +23°C° 0 mm 4 mps 740 mmHg 44%
    15:00 +23°C° 0 mm 4 mps 740 mmHg 46%
    16:00 +22°C° 0 mm 4 mps 739 mmHg 53%
    17:00 +20°C° 0 mm 3 mps 739 mmHg 61%
    18:00 +18°C° 0 mm 3 mps 739 mmHg 69%
    19:00 +17°C° 0 mm 3 mps 739 mmHg 71%
    20:00 +16°C° 0 mm 3 mps 740 mmHg 74%
    21:00 +15°C° 0 mm 2 mps 740 mmHg 77%
    22:00 +15°C° 0 mm 2 mps 740 mmHg 74%
    23:00 +15°C° 0 mm 2 mps 740 mmHg 72%

    Day after tomorrow, 26 September, Wednesday

    Time Temperature Precipitation Wind Pressure Humidity
    00:00 +15°C° 0 mm 2 mps 739 mmHg 69%
    01:00 +15°C° 0 mm 2 mps 739 mmHg 67%
    02:00 +15°C° 0 mm 2 mps 739 mmHg 64%
    03:00 +15°C° 0 mm 2 mps 739 mmHg 61%
    04:00 +15°C° 0 mm 2 mps 739 mmHg 63%
    05:00 +15°C° 0 mm 2 mps 739 mmHg 65%
    06:00 +15°C° 0 mm 2 mps 738 mmHg 67%
    07:00 +18°C° 0 mm 2 mps 739 mmHg 65%
    08:00 +20°C° 0 mm 2 mps 739 mmHg 62%
    09:00 +23°C° 0 mm 2 mps 739 mmHg 59%
    10:00 +25°C° 0 mm 2 mps 739 mmHg 54%
    11:00 +27°C° 0 mm 2 mps 739 mmHg 50%
    12:00 +28°C° 0 mm 3 mps 739 mmHg 45%
    13:00 +29°C° 0 mm 2 mps 738 mmHg 44%
    14:00 +29°C° 0 mm 2 mps 738 mmHg 43%
    15:00 +29°C° 0 mm 2 mps 738 mmHg 42%
    16:00 +27°C° 0 mm 2 mps 738 mmHg 50%
    17:00 +25°C° 0 mm 1 mps 738 mmHg 58%
    18:00 +23°C° 0 mm 1 mps 738 mmHg 66%
    19:00 +23°C° 0 mm 1 mps 738 mmHg 65%
    20:00 +22°C° 0 mm 1 mps 739 mmHg 65%
    21:00 +22°C° 0 mm 1 mps 739 mmHg 64%
    22:00 +22°C° 0 mm 1 mps 739 mmHg 63%
    23:00 +21°C° 0 mm 1 mps 739 mmHg 63%

    27 September, Thursday

    Time Temperature Precipitation Wind Pressure Humidity
    00:00 +21°C° 0 mm 1 mps 739 mmHg 62%
    01:00 +21°C° 0 mm 1 mps 739 mmHg 63%
    02:00 +20°C° 0 mm 2 mps 739 mmHg 63%
    03:00 +20°C° 0 mm 2 mps 739 mmHg 64%
    04:00 +19°C° 0 mm 2 mps 739 mmHg 67%
    05:00 +19°C° 0 mm 2 mps 739 mmHg 69%
    06:00 +19°C° 0 mm 2 mps 739 mmHg 72%
    07:00 +21°C° 0 mm 2 mps 740 mmHg 67%
    08:00 +24°C° 0 mm 1 mps 740 mmHg 62%
    09:00 +26°C° 0 mm 1 mps 740 mmHg 56%
    10:00 +28°C° 0 mm 1 mps 740 mmHg 51%
    11:00 +30°C° 0 mm 1 mps 740 mmHg 45%
    12:00 +31°C° 0 mm 1 mps 740 mmHg 39%
    13:00 +31°C° 0.1 mm 1 mps 740 mmHg 41%
    14:00 +30°C° 0.1 mm 1 mps 740 mmHg 43%
    15:00 +29°C° 0.1 mm 1 mps 739 mmHg 45%
    16:00 +27°C° 0.4 mm 1 mps 739 mmHg 52%
    17:00 +24°C° 0.4 mm 0 mps 739 mmHg 60%
    18:00 +22°C° 0.4 mm 0 mps 739 mmHg 67%
    19:00 +21°C° 0.3 mm 0 mps 739 mmHg 70%
    20:00 +22°C° 0.3 mm 1 mps 740 mmHg 72%
    21:00 +21°C° 0.3 mm 1 mps 740 mmHg 74%
    22:00 +21°C° 0.1 mm 1 mps 740 mmHg 74%
    23:00 +21°C° 0.1 mm 1 mps 739 mmHg 74%

    28 September, Friday

    Time Temperature Precipitation Wind Pressure Humidity
    00:00 +21°C° 0.1 mm 1 mps 739 mmHg 74%
    01:00 +20°C° 0.1 mm 1 mps 739 mmHg 74%
    02:00 +20°C° 0.1 mm 1 mps 739 mmHg 74%
    03:00 +20°C° 0.1 mm 1 mps 738 mmHg 75%
    04:00 +20°C° 0.1 mm 1 mps 738 mmHg 75%
    05:00 +18°C° 0.1 mm 0 mps 738 mmHg 76%
    06:00 +17°C° 0.1 mm 0 mps 738 mmHg 77%
    07:00 +20°C° 0 mm 0 mps 738 mmHg 71%
    08:00 +22°C° 0 mm 0 mps 739 mmHg 64%
    09:00 +24°C° 0 mm 0 mps 739 mmHg 58%
    10:00 +27°C° 0.2 mm 1 mps 739 mmHg 54%
    11:00 +28°C° 0.2 mm 1 mps 738 mmHg 51%
    12:00 +29°C° 0.2 mm 1 mps 738 mmHg 47%
    13:00 +28°C° 0.2 mm 2 mps 738 mmHg 49%
    14:00 +28°C° 0.2 mm 2 mps 737 mmHg 50%
    15:00 +28°C° 0.2 mm 2 mps 737 mmHg 52%
    16:00 +26°C° 0.4 mm 2 mps 737 mmHg 61%
    17:00 +24°C° 0.4 mm 1 mps 737 mmHg 71%
    18:00 +22°C° 0.4 mm 1 mps 737 mmHg 81%
    19:00 +21°C° 0 mm 1 mps 737 mmHg 84%
    20:00 +20°C° 0 mm 1 mps 737 mmHg 86%
    21:00 +19°C° 0 mm 1 mps 737 mmHg 89%
    22:00 +19°C° 0 mm 1 mps 737 mmHg 87%
    23:00 +19°C° 0 mm 1 mps 737 mmHg 84%

    29 September, Saturday

    Time Temperature Precipitation Wind Pressure Humidity
    00:00 +19°C° 0 mm 1 mps 736 mmHg 82%
    01:00 +19°C° 0 mm 1 mps 736 mmHg 81%
    02:00 +19°C° 0 mm 1 mps 736 mmHg 80%
    03:00 +18°C° 0 mm 1 mps 735 mmHg 79%
    04:00 +18°C° 0 mm 1 mps 735 mmHg 79%
    05:00 +18°C° 0 mm 1 mps 735 mmHg 79%
    06:00 +18°C° 0 mm 1 mps 735 mmHg 79%
    07:00 +20°C° 0 mm 1 mps 735 mmHg 71%
    08:00 +23°C° 0 mm 1 mps 735 mmHg 64%
    09:00 +25°C° 0 mm 1 mps 735 mmHg 56%
    10:00 +26°C° 0 mm 1 mps 735 mmHg 53%
    11:00 +27°C° 0 mm 1 mps 735 mmHg 50%
    12:00 +28°C° 0 mm 1 mps 734 mmHg 47%
    13:00 +28°C° 0.2 mm 2 mps 734 mmHg 48%
    14:00 +28°C° 0.2 mm 2 mps 733 mmHg 50%
    15:00 +27°C° 0.2 mm 2 mps 733 mmHg 51%
    16:00 +26°C° 0.4 mm 2 mps 733 mmHg 60%
    17:00 +24°C° 0.4 mm 1 mps 733 mmHg 69%
    18:00 +22°C° 0.4 mm 1 mps 733 mmHg 77%
    19:00 +21°C° 0.1 mm 1 mps 733 mmHg 79%
    20:00 +20°C° 0.1 mm 1 mps 733 mmHg 82%
    21:00 +20°C° 0.1 mm 1 mps 734 mmHg 84%
    22:00 +19°C° 0 mm 1 mps 734 mmHg 83%
    23:00 +19°C° 0 mm 1 mps 733 mmHg 82%
    Show more